Temp
66 67 67 67 67 67 66 66 65 66 67 68 69 68 68 66 66 66 66 66 66 66 65 65 66 66 66 66 66 68 68 65 65 66 66 66 66 65 64 65 66 67
65 65 66 65 65 64 64 64 62 65 66 66 67 67 66 66 65 66 66 66 66 65 65 65 65 66 66 67 66 67 67 66 64 66 65 65 66 66 64 64 65 66
64 64 64 64 62 62 61 61 61 63 65 65 65 66 66 66 65 65 65 66 66 65 64 65 65 65 65 66 66 67 67 66 65 66 67 66 66 66 65 65 66 66
62 63 63 62 61 61 60 59 60 62 64 65 66 66 66 65 66 65 65 65 66 65 65 65 65 65 66 66 66 66 66 66 65 66 65 65 66 66 65 66 66 66
62 62 61 59 58 59 58 58 60 62 64 64 64 66 67 66 66 67 66 66 66 66 66 65 65 65 65 66 67 66 66 65 65 66 66 65 65 65 65 66 66 65
62 64 65 63 61 60 60 61 61 61 62 63 65 67 67 67 68 67 67 67 67 67 66 67 67 66 66 66 66 66 67 67 66 67 68 67 66 66 67 67 66 66
62 63 63 63 63 63 62 62 62 62 62 64 65 65 66 67 68 68 69 68 68 68 68 67 67 66 66 67 67 66 66 66 67 68 68 67 67 65 66 67 68 68
65 65 65 64 63 63 63 63 63 63 62 63 63 65 67 68 69 67 68 68 68 68 67 67 67 66 66 67 68 66 65 65 66 67 68 67 67 68 67 66 66 67
67 66 66 65 63 63 63 64 63 64 64 63 64 64 64 67 67 66 67 68 67 67 67 67 67 67 66 66 66 66 67 66 65 66 67 67 67 67 69 68 66 66
66 66 65 64 64 64 63 63 64 64 65 65 65 64 65 65 66 67 66 66 66 66 67 67 67 67 66 67 66 66 66 66 66 65 66 67 67 69 69 68 68 66
65 64 64 63 63 64 63 64 64 65 65 66 65 65 65 65 66 67 67 68 66 67 68 68 68 68 67 66 66 66 66 65 66 66 65 66 66 66 64 67 67 67
64 63 63 64 64 63 62 62 63 65 65 65 66 65 64 65 65 66 68 69 69 69 69 69 69 68 68 67 67 66 66 66 66 66 66 67 66 66 67 67 66 68
64 64 64 64 64 64 62 63 64 64 65 65 66 66 65 65 66 66 67 69 69 69 69 69 68 68 68 67 67 67 66 66 65 66 66 66 66 67 67 67 67 68
64 64 64 65 65 66 64 63 63 63 65 65 66 65 66 66 66 66 65 65 65 67 67 67 67 68 67 65 66 65 65 65 65 65 66 67 66 67 66 67 67 67
65 65 65 66 66 66 65 64 63 64 64 65 65 65 63 64 63 63 63 63 64 64 64 63 63 63 63 62 61 60 61 62 64 66 66 67 67 68 68 67 67 67
65 65 65 65 66 66 65 65 64 62 63 64 65 65 64 63 61 61 61 61 62 64 61 60 61 61 57 52 52 56 56 59 62 65 66 66 66 66 67 67 67 67
64 64 65 64 65 65 65 65 65 64 65 64 64 61 60 59 59 60 59 59 60 60 60 60 60 59 50 47 46 47 58 62 63 65 66 65 65 65 65 66 67 68
63 63 64 64 64 65 65 65 64 63 64 64 62 60 58 58 58 58 58 58 60 62 63 63 61 53 46 46 45 44 48 62 63 62 63 63 64 64 66 66 65 65
64 65 65 64 65 65 65 64 64 63 63 62 61 62 61 60 60 59 61 61 62 63 63 64 64 48 44 44 44 44 42 50 62 62 61 62 63 63 63 63 64 63
62 63 63 63 62 63 63 64 63 62 63 63 62 62 61 61 61 61 62 62 63 64 63 63 64 47 44 44 44 42 41 45 60 59 60 60 60 60 60 61 61 62
62 61 61 61 61 61 61 62 62 62 62 62 62 62 61 60 61 61 62 62 62 63 63 61 61 44 43 43 42 42 39 45 59 58 59 58 58 57 57 58 59 60
62 62 62 62 62 61 60 60 59 59 58 57 56 58 61 62 62 62 61 61 61 61 61 61 58 41 41 41 41 38 42 59 60 59 59 59 58 57 57 59 59 59
61 61 61 61 61 60 61 60 60 59 58 59 58 59 60 60 60 61 61 60 58 60 61 61 58 44 40 40 39 40 50 61 59 59 58 57 56 56 58 58 58 59
60 60 60 58 56 57 59 60 61 61 61 60 57 56 56 57 57 56 58 60 60 59 61 59 57 46 39 40 40 43 51 60 61 61 57 56 55 55 57 57 52 45
60 60 60 59 59 58 58 58 58 58 59 59 60 61 59 57 57 58 56 57 58 58 52 57 56 48 39 40 40 40 51 62 62 61 58 57 57 56 57 57 55 48
60 59 59 60 61 59 57 57 58 58 56 56 55 56 54 54 54 55 54 53 54 55 55 58 57 56 48 39 41 40 45 62 63 62 60 57 59 58 56 56 55 54
MSLP
1018.24 1018.00 1018.00 1018.12 1018.36 1018.60 1018.92 1019.16 1019.32 1019.44 1019.60 1019.72 1019.76 1020.04 1020.24 1020.56 1020.68 1020.72 1020.80 1020.88 1021.00 1021.08 1021.20 1021.24 1021.28 1021.36 1021.44 1021.52 1021.52 1021.48 1021.56 1021.80 1021.92 1022.00 1022.08 1022.12 1022.28 1022.36 1022.52 1022.56 1022.52 1022.52
1018.08 1018.28 1018.44 1018.52 1018.72 1018.96 1019.28 1019.56 1019.88 1019.68 1019.84 1020.00 1020.08 1020.24 1020.44 1020.68 1020.92 1020.92 1021.00 1021.12 1021.20 1021.40 1021.48 1021.56 1021.60 1021.64 1021.72 1021.72 1021.84 1021.80 1021.96 1022.08 1022.28 1022.28 1022.28 1022.36 1022.44 1022.52 1022.64 1022.72 1022.72 1022.76
1018.20 1018.68 1019.04 1019.32 1019.44 1019.48 1019.52 1019.56 1019.84 1020.16 1019.96 1020.16 1020.32 1020.40 1020.56 1020.80 1021.00 1021.12 1021.24 1021.32 1021.40 1021.60 1021.72 1021.80 1021.88 1021.92 1022.00 1022.04 1022.08 1022.12 1022.24 1022.40 1022.56 1022.64 1022.56 1022.68 1022.72 1022.72 1022.92 1022.92 1022.96 1022.96
1019.12 1018.80 1018.84 1019.20 1019.76 1019.96 1019.88 1020.12 1020.32 1020.16 1020.08 1020.16 1020.28 1020.44 1020.56 1020.80 1020.96 1021.16 1021.28 1021.44 1021.52 1021.68 1021.80 1021.88 1021.96 1022.04 1022.08 1022.20 1022.20 1022.32 1022.52 1022.64 1022.84 1022.84 1022.96 1023.00 1023.08 1023.08 1023.20 1023.16 1023.20 1023.16
1018.20 1018.36 1018.48 1018.32 1018.76 1019.60 1020.12 1019.96 1020.16 1020.36 1020.20 1020.16 1020.32 1020.40 1020.48 1020.72 1020.92 1021.04 1021.24 1021.40 1021.48 1021.64 1021.76 1021.88 1021.96 1022.12 1022.20 1022.28 1022.32 1022.44 1022.64 1022.84 1023.00 1022.96 1023.04 1023.24 1023.32 1023.36 1023.40 1023.36 1023.40 1023.48
1017.72 1017.88 1018.00 1018.32 1018.88 1019.16 1019.64 1020.08 1020.08 1020.32 1020.32 1020.28 1020.28 1020.32 1020.48 1020.60 1020.80 1020.96 1021.12 1021.28 1021.44 1021.56 1021.72 1021.80 1021.96 1022.12 1022.20 1022.32 1022.40 1022.48 1022.60 1022.72 1022.96 1022.96 1023.00 1023.16 1023.32 1023.36 1023.40 1023.40 1023.44 1023.48
1017.60 1017.88 1018.08 1018.44 1018.76 1019.16 1019.48 1019.80 1020.04 1020.24 1020.40 1020.32 1020.36 1020.36 1020.44 1020.64 1020.76 1020.92 1021.04 1021.20 1021.36 1021.52 1021.68 1021.84 1021.96 1022.16 1022.28 1022.32 1022.36 1022.52 1022.64 1022.76 1022.88 1022.88 1022.92 1023.08 1023.16 1023.36 1023.36 1023.36 1023.32 1023.44
1017.52 1017.76 1018.04 1018.32 1018.64 1019.00 1019.24 1019.56 1019.80 1020.08 1020.32 1020.48 1020.48 1020.40 1020.32 1020.40 1020.60 1020.88 1021.04 1021.20 1021.36 1021.56 1021.72 1021.84 1022.00 1022.16 1022.32 1022.32 1022.36 1022.52 1022.68 1022.84 1022.92 1022.92 1022.96 1023.08 1023.16 1023.16 1023.32 1023.40 1023.44 1023.40
1017.56 1017.84 1018.08 1018.32 1018.60 1018.76 1019.04 1019.24 1019.48 1019.72 1020.04 1020.32 1020.48 1020.56 1020.52 1020.44 1020.56 1020.80 1021.00 1021.16 1021.40 1021.60 1021.72 1021.88 1021.96 1022.16 1022.32 1022.36 1022.48 1022.56 1022.60 1022.76 1022.88 1022.92 1023.00 1023.08 1023.16 1023.16 1023.16 1023.28 1023.40 1023.44
1017.72 1017.96 1018.12 1018.12 1018.00 1018.04 1018.40 1018.80 1019.16 1019.48 1019.72 1020.04 1020.28 1020.48 1020.56 1020.60 1020.60 1020.76 1021.00 1021.20 1021.44 1021.60 1021.76 1021.92 1022.04 1022.16 1022.24 1022.28 1022.44 1022.56 1022.68 1022.76 1022.92 1023.04 1023.08 1023.12 1023.08 1023.08 1023.08 1023.24 1023.20 1023.36
1017.80 1017.88 1017.76 1017.44 1017.48 1017.96 1018.52 1018.92 1019.16 1019.40 1019.60 1019.76 1020.04 1020.28 1020.44 1020.64 1020.76 1020.76 1020.92 1021.04 1021.28 1021.40 1021.60 1021.80 1021.96 1022.12 1022.24 1022.36 1022.48 1022.52 1022.56 1022.64 1022.76 1022.84 1023.00 1023.08 1023.12 1023.12 1023.16 1023.08 1023.12 1023.12
1017.80 1017.84 1017.76 1017.76 1017.96 1018.40 1018.88 1019.28 1019.44 1019.48 1019.60 1019.72 1019.76 1020.00 1020.28 1020.48 1020.64 1020.72 1020.72 1020.84 1020.96 1021.16 1021.32 1021.60 1021.80 1022.00 1022.16 1022.32 1022.44 1022.52 1022.60 1022.64 1022.64 1022.72 1022.80 1022.84 1022.92 1023.00 1022.96 1023.00 1023.04 1022.92
1017.64 1017.72 1017.72 1017.76 1017.84 1018.32 1018.76 1018.88 1019.12 1019.40 1019.52 1019.68 1019.76 1019.84 1020.00 1020.16 1020.28 1020.44 1020.56 1020.60 1020.80 1021.00 1021.20 1021.40 1021.64 1021.76 1021.92 1022.12 1022.28 1022.40 1022.56 1022.64 1022.72 1022.72 1022.76 1022.80 1022.80 1022.76 1022.76 1022.76 1022.80 1022.80
1017.64 1017.72 1017.80 1017.76 1017.76 1018.00 1018.36 1018.56 1018.72 1019.04 1019.28 1019.44 1019.56 1019.72 1019.80 1019.88 1020.04 1020.20 1020.44 1020.60 1020.80 1020.92 1021.16 1021.36 1021.48 1021.60 1021.84 1022.12 1022.20 1022.36 1022.56 1022.68 1022.72 1022.76 1022.64 1022.56 1022.52 1022.52 1022.52 1022.56 1022.56 1022.56
1017.56 1017.72 1017.80 1017.80 1017.88 1018.04 1018.28 1018.44 1018.64 1018.92 1019.16 1019.32 1019.44 1019.68 1019.88 1019.92 1020.04 1020.16 1020.40 1020.56 1020.64 1020.72 1020.96 1021.20 1021.36 1021.44 1021.60 1021.88 1022.12 1022.52 1022.76 1022.92 1022.76 1022.64 1022.60 1022.48 1022.32 1022.20 1022.20 1022.24 1022.28 1022.32
1017.56 1017.72 1017.84 1017.88 1017.92 1018.00 1018.20 1018.40 1018.60 1018.84 1019.04 1019.08 1019.20 1019.44 1019.76 1019.92 1020.00 1020.20 1020.36 1020.48 1020.64 1020.76 1020.80 1020.96 1021.24 1021.40 1021.36 1021.56 1022.04 1022.44 1022.72 1022.88 1022.88 1022.68 1022.52 1022.44 1022.32 1022.20 1022.08 1022.04 1022.08 1022.12
1017.64 1017.72 1017.84 1017.92 1017.96 1018.00 1018.12 1018.28 1018.44 1018.60 1018.72 1018.92 1019.16 1019.44 1019.68 1020.12 1020.36 1020.40 1020.40 1020.44 1020.48 1020.68 1020.88 1021.00 1021.00 1021.08 1021.24 1021.32 1021.64 1022.20 1022.44 1022.52 1022.60 1022.48 1022.36 1022.32 1022.28 1022.24 1022.08 1021.88 1021.80 1021.84
1017.64 1017.72 1017.84 1017.92 1017.96 1018.00 1018.04 1018.16 1018.36 1018.48 1018.56 1018.72 1019.08 1019.28 1019.36 1019.56 1019.88 1020.08 1020.20 1020.20 1020.28 1020.44 1020.64 1020.56 1020.60 1020.72 1021.00 1021.24 1021.60 1022.04 1022.40 1022.36 1022.28 1022.36 1022.32 1022.32 1022.24 1022.20 1022.00 1021.88 1021.84 1021.84
1017.72 1017.72 1017.72 1017.80 1017.88 1017.92 1018.00 1018.16 1018.28 1018.44 1018.52 1018.72 1018.76 1018.56 1018.84 1019.08 1019.16 1019.72 1019.84 1019.80 1019.80 1020.00 1020.16 1020.28 1020.36 1020.68 1020.92 1021.16 1021.40 1021.76 1022.16 1022.48 1022.16 1022.16 1022.20 1022.12 1022.16 1022.16 1022.12 1022.08 1022.00 1021.96
1018.04 1017.92 1017.84 1017.92 1018.04 1018.08 1018.12 1018.16 1018.32 1018.36 1018.32 1018.40 1018.48 1018.60 1018.76 1018.88 1019.08 1019.28 1019.36 1019.44 1019.52 1019.64 1019.88 1020.08 1020.28 1020.80 1020.96 1021.08 1021.32 1021.68 1022.20 1022.40 1022.24 1022.16 1022.20 1022.24 1022.32 1022.36 1022.40 1022.28 1022.24 1022.08
1018.12 1018.12 1018.04 1018.00 1018.04 1018.16 1018.24 1018.24 1018.28 1018.36 1018.48 1018.56 1018.68 1018.76 1018.96 1019.16 1019.16 1019.20 1019.28 1019.32 1019.44 1019.52 1019.68 1020.00 1020.20 1020.60 1020.72 1020.92 1021.28 1021.80 1022.12 1022.12 1022.00 1022.16 1022.28 1022.48 1022.64 1022.72 1022.72 1022.60 1022.44 1022.36
1017.96 1017.96 1017.96 1017.88 1017.84 1017.92 1018.04 1018.16 1018.36 1018.84 1019.08 1019.20 1019.44 1019.44 1019.24 1019.00 1018.92 1018.92 1019.04 1019.16 1019.24 1019.44 1019.64 1019.84 1020.32 1020.64 1020.72 1021.08 1021.48 1021.80 1021.80 1021.64 1021.92 1022.16 1022.36 1022.40 1022.60 1022.72 1022.72 1022.68 1022.60 1022.56
1018.16 1018.08 1018.00 1017.92 1017.88 1017.88 1017.80 1017.84 1018.08 1018.40 1018.68 1018.80 1018.96 1018.96 1018.88 1018.80 1018.72 1018.76 1018.76 1019.04 1019.60 1019.60 1019.48 1019.64 1020.20 1020.76 1020.96 1021.24 1021.44 1021.40 1021.36 1021.60 1021.96 1022.12 1022.36 1022.64 1022.88 1023.00 1022.88 1022.88 1022.84 1022.72
1018.32 1018.20 1018.04 1018.08 1018.28 1018.08 1017.72 1017.64 1017.72 1017.84 1018.08 1018.44 1018.80 1019.16 1019.40 1019.44 1019.28 1019.32 1019.12 1018.96 1019.20 1019.48 1019.40 1019.52 1020.16 1020.88 1021.00 1021.00 1021.00 1021.20 1021.36 1021.48 1021.60 1021.76 1022.36 1022.72 1022.96 1023.08 1022.96 1023.08 1023.52 1023.48
1018.32 1018.16 1018.04 1017.80 1017.68 1017.68 1017.76 1017.64 1017.64 1017.76 1017.84 1018.20 1018.24 1018.24 1018.52 1019.04 1019.32 1019.16 1019.28 1019.28 1019.24 1019.24 1019.48 1019.52 1020.08 1020.80 1020.84 1020.68 1021.00 1021.36 1021.52 1021.16 1021.28 1021.52 1022.04 1022.40 1022.48 1022.88 1023.00 1023.04 1023.44 1023.84
1018.20 1018.20 1017.96 1017.80 1017.44 1017.52 1017.80 1017.76 1017.72 1017.80 1018.04 1018.20 1018.48 1018.64 1018.92 1019.04 1018.96 1018.92 1019.08 1019.36 1019.52 1019.52 1019.68 1019.48 1019.68 1020.24 1020.68 1020.80 1021.08 1021.32 1021.28 1020.92 1021.00 1021.16 1021.68 1022.24 1022.28 1022.48 1022.88 1023.24 1023.40 1023.68
Wind_Speed
2 3 4 4 4 3 3 4 3 3 3 2 3 3 3 3 3 3 3 3 3 4 3 3 3 4 3 3 3 4 4 5 4 4 5 5 5 6 5 5 5 5
4 3 4 4 4 5 4 4 3 2 3 2 2 3 3 3 4 3 3 3 4 5 4 4 4 4 3 3 3 4 4 4 5 2 4 6 5 5 5 6 6 5
7 7 6 6 4 5 4 4 2 1 2 3 3 2 3 3 4 3 3 3 4 5 4 4 4 4 4 4 3 4 4 5 5 3 3 4 3 5 5 5 5 5
5 5 6 6 4 3 5 4 2 0 2 3 3 3 3 3 4 4 4 4 4 4 4 4 4 4 4 4 4 5 5 5 4 4 5 4 4 4 4 4 5 5
12 10 8 8 8 6 2 6 6 3 2 3 4 4 4 4 4 4 3 3 3 4 4 4 4 4 4 4 4 5 5 5 4 3 5 5 3 4 3 4 4 5
7 7 8 6 5 6 6 3 4 4 3 4 4 4 4 5 4 4 4 4 3 3 4 3 4 4 4 4 4 4 5 5 4 5 6 6 5 3 3 3 4 4
9 7 7 5 6 5 5 4 4 4 3 1 3 4 5 5 5 5 4 4 4 3 3 3 3 3 3 3 4 4 4 4 4 4 5 4 5 5 4 3 4 5
9 7 6 5 5 4 5 5 5 4 4 3 4 3 5 6 6 5 4 4 4 4 4 4 3 4 3 2 3 3 4 2 2 3 3 4 3 4 4 2 3 4
5 5 5 5 4 3 5 5 6 6 6 5 4 3 2 4 6 6 6 5 5 4 4 3 4 3 3 2 2 1 1 2 2 1 2 2 3 3 4 3 3 3
4 5 5 4 6 6 7 6 6 6 6 6 5 4 4 3 5 6 6 6 6 5 4 4 3 3 3 2 3 2 1 1 0 0 1 1 2 2 3 4 4 4
6 6 7 9 8 4 4 4 5 6 6 7 6 5 5 4 5 6 7 7 7 7 6 5 4 4 4 3 3 2 1 1 1 1 1 2 3 3 3 4 4 5
6 7 8 6 3 3 3 1 2 4 5 5 7 7 7 6 7 6 7 8 9 8 8 7 6 5 5 4 3 2 1 0 0 1 2 3 4 4 4 4 5 6
7 8 7 6 7 5 6 6 6 5 6 7 6 8 8 8 8 8 7 7 8 7 7 6 6 5 4 4 3 3 3 2 2 2 3 3 4 5 5 6 6 6
7 6 6 7 6 4 4 6 6 7 7 7 8 8 8 9 9 9 7 7 7 7 7 6 4 3 4 4 3 4 4 4 3 3 4 5 5 5 5 6 6 7
6 6 6 7 7 6 5 5 6 7 8 8 8 7 5 7 7 7 7 7 7 7 7 5 3 2 2 2 4 5 5 6 7 6 6 6 6 6 5 5 6 6
6 5 6 7 8 8 8 9 8 8 9 10 10 8 6 5 7 7 6 6 5 4 4 4 2 2 4 5 5 2 7 6 6 7 6 6 7 7 7 6 5 5
3 4 5 7 7 7 6 9 10 9 11 11 7 7 8 6 4 5 6 5 4 3 5 7 7 7 13 11 11 10 6 6 6 6 6 6 6 6 7 6 5 4
3 3 5 6 7 8 8 8 8 9 10 8 6 8 8 9 10 10 8 7 7 9 9 8 7 8 14 12 11 10 9 6 4 4 4 4 4 5 5 5 5 5
5 6 6 7 7 7 6 6 7 9 9 9 10 10 8 10 10 9 11 11 10 10 9 7 6 9 12 12 12 11 10 6 3 3 3 3 3 3 4 4 4 4
1 4 6 5 4 5 6 8 7 9 9 8 7 7 8 8 9 12 9 9 9 9 9 7 6 9 12 11 11 9 8 6 3 2 1 1 2 2 2 3 3 3
4 3 4 4 3 3 4 7 10 9 7 6 5 6 7 8 10 11 10 8 8 8 7 6 5 11 11 11 8 8 9 6 2 3 2 2 1 1 2 2 3 3
4 5 6 6 6 5 6 6 5 5 5 3 3 6 7 7 8 7 8 8 7 7 7 6 4 7 8 8 9 9 9 4 4 4 3 3 3 4 3 3 3 3
5 5 5 5 6 6 7 8 7 8 7 6 8 8 9 8 7 7 6 5 5 6 7 6 5 6 9 11 11 11 8 5 5 5 4 5 3 2 2 3 4 3
5 6 6 5 5 7 8 7 7 6 7 6 6 5 4 4 3 2 3 6 8 8 7 7 6 7 10 12 13 11 7 7 6 5 5 5 4 3 3 5 7 10
5 6 6 5 5 6 5 6 6 6 4 5 6 7 5 4 5 5 4 4 4 5 7 9 8 7 10 12 12 10 7 5 5 6 6 5 5 5 5 5 6 9
5 5 6 6 6 4 3 5 3 3 4 4 3 2 3 3 4 4 5 4 4 5 5 6 8 6 7 11 11 10 9 6 5 5 5 5 5 5 6 5 6 6
Wind_Direction
56 127 137 130 121 103 108 109 100 104 99 104 114 105 93 86 73 69 74 79 73 85 82 83 89 95 92 94 86 96 96 94 96 108 114 114 116 122 120 124 115 117
149 120 93 99 91 84 78 51 24 91 107 86 74 90 88 92 69 66 72 85 85 71 65 62 60 67 72 85 78 92 98 97 100 85 114 114 120 119 119 121 119 122
99 87 81 71 74 93 95 98 103 36 104 97 93 95 94 91 92 80 73 68 81 83 74 73 73 68 67 68 61 70 78 82 85 72 85 94 96 112 113 120 121 121
77 100 101 91 62 74 103 80 8 170 131 139 126 119 111 107 106 98 90 85 93 93 92 90 89 91 89 91 95 88 82 78 74 83 87 78 72 93 98 104 114 114
159 146 137 141 157 143 148 159 174 197 191 139 132 140 133 129 126 115 108 104 104 103 101 99 97 94 98 95 102 108 103 101 94 104 103 95 81 88 92 105 108 104
162 147 152 150 131 130 148 165 151 180 183 165 158 143 137 137 137 136 134 133 127 120 114 108 102 97 92 98 101 105 118 118 119 131 125 124 124 122 119 117 117 116
156 156 157 149 138 140 140 148 150 165 188 168 146 158 148 149 148 146 144 138 135 128 114 109 105 98 92 102 107 110 110 114 131 141 140 136 140 141 142 141 133 124
162 161 155 148 147 142 147 153 157 160 162 177 194 179 168 157 156 145 142 136 120 116 117 114 107 100 94 104 119 126 124 127 134 152 147 140 154 149 144 136 148 147
161 153 136 128 138 154 160 168 164 160 161 173 189 179 210 165 151 150 141 133 119 112 112 112 116 117 112 107 93 79 110 122 138 152 173 169 174 164 163 152 166 165
152 107 113 153 187 184 176 171 167 159 161 167 175 168 182 172 152 144 136 130 124 119 117 111 106 106 113 104 88 74 39 23 38 222 235 249 246 213 189 187 188 188
144 144 177 195 193 164 151 158 169 166 163 166 163 170 162 156 150 146 144 141 137 137 129 123 117 108 97 93 103 116 125 156 228 241 240 249 250 245 227 224 209 213
165 179 203 222 203 144 125 113 181 175 164 165 172 164 153 155 156 158 159 153 147 141 134 129 128 122 112 104 100 106 112 92 295 276 263 251 241 245 243 233 233 229
194 198 205 218 226 180 156 172 178 175 173 176 173 163 162 161 165 160 161 152 142 138 135 129 126 134 139 130 103 65 35 14 354 309 275 253 247 243 238 238 239 240
209 206 212 224 232 215 177 177 163 164 173 166 172 173 169 163 159 157 148 144 137 126 113 115 127 136 101 86 64 36 6 344 328 294 287 272 254 240 233 236 235 235
210 206 216 226 231 220 194 203 171 168 167 170 171 164 158 159 154 148 152 152 151 147 146 138 121 113 108 96 62 24 348 316 309 298 282 279 276 270 252 240 243 241
223 211 216 224 226 220 201 193 180 168 173 176 177 170 159 155 150 149 147 155 161 165 126 94 169 183 191 148 138 169 258 264 270 267 267 271 274 277 275 262 252 255
241 231 223 228 227 226 201 192 189 180 183 183 171 155 159 154 164 163 170 179 177 168 160 184 198 195 197 189 192 208 213 222 243 263 275 274 271 270 274 281 277 274
245 236 239 238 234 225 216 201 188 184 188 183 166 183 178 185 198 198 199 204 215 210 200 199 203 187 173 180 183 188 208 227 234 253 260 265 270 274 283 295 301 302
243 245 242 238 237 235 227 206 193 195 193 187 196 202 194 198 191 194 215 207 202 203 208 208 206 166 172 170 174 190 200 215 230 231 248 262 284 299 306 307 309 309
245 236 231 226 223 229 229 223 212 206 203 203 203 200 203 203 195 209 209 201 196 200 199 194 195 166 171 169 184 183 169 182 219 190 234 349 354 356 338 327 326 321
264 250 236 222 216 221 226 226 225 222 218 220 214 213 212 206 202 208 208 198 194 194 188 179 173 159 172 178 174 154 165 183 136 108 95 75 61 42 20 8 354 344
247 237 233 232 223 214 216 220 214 218 231 213 227 236 234 220 206 203 193 191 184 181 182 176 143 164 161 150 140 152 146 135 122 126 127 108 69 43 28 25 21 11
298 267 248 236 227 220 220 220 217 207 202 191 205 213 218 212 204 200 194 165 172 194 183 160 144 145 144 145 144 136 124 132 141 134 115 100 84 77 73 56 41 33
308 278 256 227 218 225 222 217 214 208 205 186 190 205 218 231 200 199 191 184 185 188 188 157 143 142 150 138 131 132 145 150 152 129 120 115 112 88 87 79 57 36
319 290 272 252 233 227 223 223 209 203 193 173 198 206 197 169 189 185 171 169 179 166 155 149 136 137 138 128 133 150 178 152 144 136 129 127 119 104 89 90 80 56
331 310 282 270 257 235 227 228 204 177 164 174 160 167 156 165 163 149 134 121 129 142 148 139 127 125 133 139 149 162 183 163 154 143 137 131 124 123 113 96 91 86